TimeEDT,TemperatureF,Dew PointF,Humidity,Sea Level PressureIn,VisibilityMPH,Wind Direction,Wind SpeedMPH,Gust SpeedMPH,PrecipitationIn,Events,Conditions,WindDirDegrees,DateUTC
12:35 AM,75.2,75.2,100,29.85,10.0,Calm,Calm,-,N/A,,Mostly Cloudy,0,2012-10-01 04:35:00
12:55 AM,75.2,75.2,100,29.85,10.0,Calm,Calm,-,N/A,,Mostly Cloudy,0,2012-10-01 04:55:00
1:15 AM,75.2,75.2,100,29.84,10.0,Calm,Calm,-,N/A,,Partly Cloudy,0,2012-10-01 05:15:00
1:35 AM,73.4,73.4,100,29.84,10.0,Calm,Calm,-,N/A,,Clear,0,2012-10-01 05:35:00
1:55 AM,73.4,73.4,100,29.84,10.0,Calm,Calm,-,N/A,,Partly Cloudy,0,2012-10-01 05:55:00
2:15 AM,73.4,73.4,100,29.83,10.0,Calm,Calm,-,N/A,,Scattered Clouds,0,2012-10-01 06:15:00
2:35 AM,73.4,73.4,100,29.82,10.0,Calm,Calm,-,N/A,,Scattered Clouds,0,2012-10-01 06:35:00
2:55 AM,73.4,73.4,100,29.81,10.0,Calm,Calm,-,N/A,,Partly Cloudy,0,2012-10-01 06:55:00
3:35 AM,73.4,73.4,100,29.80,9.0,Calm,Calm,-,N/A,,Clear,0,2012-10-01 07:35:00
3:55 AM,73.4,73.4,100,29.80,8.0,Calm,Calm,-,N/A,,Partly Cloudy,0,2012-10-01 07:55:00
4:15 AM,73.4,-9999,N/A,29.80,5.0,SE,5.8,-,N/A,,Light Drizzle,130,2012-10-01 08:15:00
4:35 AM,73.4,-9999,N/A,29.80,9.0,SSE,3.5,-,N/A,,Overcast,160,2012-10-01 08:35:00
4:55 AM,73.4,-9999,N/A,29.80,9.0,SE,3.5,-,N/A,,Mostly Cloudy,140,2012-10-01 08:55:00
5:15 AM,73.4,73.4,100,29.80,10.0,SE,4.6,-,N/A,,Partly Cloudy,140,2012-10-01 09:15:00
5:35 AM,73.4,73.4,100,29.80,8.0,Calm,Calm,-,N/A,,Mostly Cloudy,0,2012-10-01 09:35:00
5:55 AM,73.4,-9999,N/A,29.80,6.0,Calm,Calm,-,N/A,,Haze,0,2012-10-01 09:55:00
6:15 AM,73.4,-9999,N/A,29.80,8.0,East,3.5,-,N/A,,Partly Cloudy,100,2012-10-01 10:15:00
6:35 AM,71.6,-9999,N/A,29.80,9.0,East,3.5,-,N/A,,Clear,100,2012-10-01 10:35:00
6:55 AM,71.6,71.6,100,29.80,8.0,Calm,Calm,-,N/A,,Clear,0,2012-10-01 10:55:00
7:15 AM,71.6,71.6,100,29.81,7.0,East,3.5,-,N/A,,Mostly Cloudy,90,2012-10-01 11:15:00
3:35 PM,82.4,73.4,74,29.75,9.0,WSW,3.5,-,N/A,Thunderstorm,Partly Cloudy,240,2012-10-01 19:35:00
3:55 PM,84.2,73.4,70,29.75,9.0,SSW,9.2,-,N/A,,Partly Cloudy,210,2012-10-01 19:55:00
4:15 PM,84.2,73.4,70,29.76,9.0,SW,12.7,-,N/A,,Clear,220,2012-10-01 20:15:00
4:35 PM,84.2,73.4,70,29.75,10.0,SSW,8.1,-,N/A,,Clear,200,2012-10-01 20:35:00
4:55 PM,84.2,73.4,70,29.75,8.0,SSW,10.4,-,N/A,Thunderstorm,Scattered Clouds,210,2012-10-01 20:55:00
5:15 PM,84.2,73.4,70,29.75,10.0,SW,9.2,-,N/A,,Mostly Cloudy,230,2012-10-01 21:15:00
5:35 PM,84.2,69.8,62,29.75,9.0,SW,8.1,-,N/A,,Partly Cloudy,220,2012-10-01 21:35:00
5:55 PM,86.0,71.6,62,29.76,10.0,SSW,8.1,-,N/A,,Scattered Clouds,200,2012-10-01 21:55:00
6:15 PM,86.0,69.8,58,29.77,8.0,SSW,12.7,16.1,N/A,,Mostly Cloudy,210,2012-10-01 22:15:00
6:35 PM,84.2,69.8,62,29.77,9.0,SW,10.4,-,N/A,,Partly Cloudy,230,2012-10-01 22:35:00
6:55 PM,82.4,69.8,66,29.77,10.0,SSW,5.8,-,N/A,,Clear,210,2012-10-01 22:55:00
7:15 PM,82.4,69.8,66,29.78,9.0,SSW,8.1,-,N/A,,Clear,210,2012-10-01 23:15:00
7:35 PM,80.6,68.0,65,29.79,10.0,SSW,5.8,-,N/A,,Partly Cloudy,200,2012-10-01 23:35:00
7:55 PM,78.8,69.8,74,29.79,10.0,SSW,4.6,-,N/A,,Clear,200,2012-10-01 23:55:00
8:15 PM,78.8,69.8,74,29.80,10.0,SSW,3.5,-,N/A,,Clear,200,2012-10-02 00:15:00
8:35 PM,78.8,69.8,74,29.80,10.0,South,3.5,-,N/A,,Clear,190,2012-10-02 00:35:00
8:55 PM,77.0,71.6,83,29.81,9.0,South,3.5,-,N/A,,Clear,190,2012-10-02 00:55:00
9:15 PM,77.0,71.6,83,29.81,10.0,South,3.5,-,N/A,,Clear,190,2012-10-02 01:15:00
9:35 PM,77.0,71.6,83,29.82,10.0,South,3.5,-,N/A,,Clear,180,2012-10-02 01:35:00
9:55 PM,77.0,71.6,83,29.83,10.0,SSE,3.5,-,N/A,,Clear,160,2012-10-02 01:55:00
10:15 PM,75.2,71.6,89,29.83,10.0,Calm,Calm,-,N/A,,Clear,0,2012-10-02 02:15:00
10:35 PM,75.2,71.6,89,29.83,10.0,South,3.5,-,N/A,,Clear,190,2012-10-02 02:35:00
11:15 PM,75.2,73.4,94,29.83,10.0,SSE,5.8,-,N/A,,Clear,150,2012-10-02 03:15:00
11:55 PM,75.2,75.2,100,29.84,10.0,South,6.9,-,N/A,,Clear,170,2012-10-02 03:55:00